Weather History for KOQT - September, 2013

Change the Weather History Date:

Tuesday, September 10, 2013

  Actual Average (KTYS) Record (KTYS)
Temperature  
Mean Temperature 80 °F 73 °F  
Max Temperature 91 °F 84 °F 96 °F (1925)
Min Temperature 69 °F 63 °F 48 °F (1924)
Degree Days  
Heating Degree Days 0 0  
Month to date heating degree days 0  
Since 1 July heating degree days 0  
Cooling Degree Days 14 8  
Month to date cooling degree days 97  
Year to date cooling degree days 1378  
Growing Degree Days 30 (Base 50)    
Moisture  
Dew Point 67 °F    
Average Humidity 70    
Maximum Humidity 93    
Minimum Humidity 40    
Precipitation  
Precipitation 0.00 in 0.12 in 2.27 in (1877)
Month to date precipitation 1.02  
Year to date precipitation 34.62  
Snow  
Snow 0.00 in 0.00 in - ()
Month to date snowfall 0.0  
Since 1 July snowfall 0.0  
Since 1 September snowfall 0.0  
Snow Depth -    
Sea Level Pressure  
Sea Level Pressure 30.16 in    
Wind  
Wind Speed 1 mph (SSW)    
Max Wind Speed 6 mph    
Max Gust Speed -    
Visibility 10 miles    
Events      
T = Trace of Precipitation, MM = Missing Value Source: NWS Daily Summary

Daily Weather History Graph

Daily Weather History Graph

Search for Another Location

Airport or City:

Trip Planner

Search our weather history database for the weather conditions in past years. The results will help you decide how hot, cold, wet, or windy it might be!

Date:

Astronomy

Sep. 10, 2013 Rise Set
Actual Time 7:15 AM EDT 7:51 PM EDT
Civil Twilight 6:49 AM EDT 8:16 PM EDT
Nautical Twilight 6:19 AM EDT 8:47 PM EDT
Astronomical Twilight 5:48 AM EDT 9:18 PM EDT
Moon 12:29 PM EDT (9/10) 11:04 PM EDT (9/10)
Length of Visible Light 13h 27m
Length of Day
12h 35m
Waxing Crescent, 28% of the Moon is Illuminated
Sep 10
Waxing Crescent
Sep 12
First Quarter
Sep 19
Full
Sep 26
Last Quarter
Oct 4
New

Hourly Weather History & Observations

Time (EDT) Temp. Heat Index Dew Point Humidity Pressure Visibility Wind Dir Wind Speed Gust Speed Precip Events Conditions
12:53 AM 73.9 °F - 70.0 °F 87% 30.11 in 10.0 mi Calm Calm - N/A   Clear
1:53 AM 73.0 °F - 69.1 °F 87% 30.12 in 10.0 mi Calm Calm - N/A   Clear
2:53 AM 72.0 °F - 69.1 °F 91% 30.12 in 9.0 mi Calm Calm - N/A   Clear
3:53 AM 71.1 °F - 68.0 °F 90% 30.13 in 9.0 mi Calm Calm - N/A   Clear
4:53 AM 71.1 °F - 68.0 °F 90% 30.13 in 9.0 mi Calm Calm - N/A   Scattered Clouds
5:53 AM 70.0 °F - 68.0 °F 93% 30.14 in 9.0 mi Calm Calm - N/A   Clear
6:53 AM 69.1 °F - 66.9 °F 93% 30.16 in 7.0 mi Calm Calm - N/A   Clear
7:53 AM 69.1 °F - 66.9 °F 93% 30.18 in 6.0 mi Calm Calm - N/A   Clear
8:53 AM 73.0 °F - 68.0 °F 84% 30.19 in 10.0 mi Calm Calm - N/A   Clear
9:53 AM 79.0 °F - 68.0 °F 69% 30.21 in 10.0 mi Calm Calm - N/A   Clear
10:53 AM 82.0 °F 84.1 °F 66.0 °F 58% 30.21 in 10.0 mi SE 5.8 mph - N/A   Clear
11:53 AM 84.0 °F 85.8 °F 64.9 °F 53% 30.20 in 10.0 mi SSW 3.5 mph - N/A   Clear
12:53 PM 84.9 °F 87.1 °F 66.0 °F 53% 30.19 in 10.0 mi Calm Calm - N/A   Clear
1:53 PM 87.1 °F 89.9 °F 66.9 °F 51% 30.18 in 10.0 mi Calm Calm - N/A   Clear
2:53 PM 89.1 °F 92.1 °F 66.9 °F 48% 30.17 in 10.0 mi Variable 4.6 mph - N/A   Scattered Clouds
3:53 PM 90.0 °F 91.3 °F 64.0 °F 42% 30.14 in 10.0 mi Variable 4.6 mph - N/A   Scattered Clouds
4:53 PM 89.1 °F 89.3 °F 62.1 °F 40% 30.12 in 10.0 mi South 3.5 mph - N/A   Partly Cloudy
5:53 PM 89.1 °F 90.3 °F 64.0 °F 43% 30.11 in 10.0 mi South 4.6 mph - N/A   Clear
6:53 PM 87.1 °F 89.9 °F 66.9 °F 51% 30.13 in 10.0 mi West 4.6 mph - N/A   Clear
7:53 PM 82.9 °F 85.8 °F 68.0 °F 60% 30.14 in 10.0 mi Calm Calm - N/A   Clear
8:53 PM 78.1 °F - 71.1 °F 79% 30.16 in 10.0 mi Calm Calm - N/A   Clear
9:53 PM 78.1 °F - 71.1 °F 79% 30.18 in 10.0 mi Calm Calm - N/A   Partly Cloudy
10:53 PM 77.0 °F - 68.0 °F 74% 30.19 in 10.0 mi South 3.5 mph - N/A   Clear
11:53 PM 75.9 °F - 66.9 °F 74% 30.19 in 10.0 mi Calm Calm - N/A   Clear